This is the latest recevied weather packets stored in our database for station/object KQ4NAL. If no packets are shown the sender has not sent any weather packets the latest 10 day(s).
| Time | Temp. | Humidity | Pressure | Rain* | Wind** | Luminosity | Snow |
|---|---|---|---|---|---|---|---|
| 1777739750 | 11.11° C | 51% | 1019 hPa | 0 mm | - | 232 W/m² | - |
| 1777739447 | 11.67° C | 50% | 1019 hPa | 0 mm | - | 903 W/m² | - |
| 1777739144 | 11.11° C | 51% | 1019 hPa | 0 mm | - | 869 W/m² | - |
| 1777738841 | 11.67° C | 56% | 1019.2 hPa | 0 mm | - | 924 W/m² | - |
| 1777738538 | 12.78° C | 50% | 1019.2 hPa | 0 mm | - | 380 W/m² | - |
| 1777738236 | 12.22° C | 51% | 1019 hPa | 0 mm | - | 857 W/m² | - |
| 1777737934 | 11.67° C | 51% | 1019.2 hPa | 0 mm | - | 329 W/m² | - |
| 1777737632 | 12.78° C | 54% | 1019.2 hPa | 0 mm | - | 829 W/m² | - |
| 1777737330 | 11.67° C | 54% | 1019.3 hPa | 0 mm | - | 873 W/m² | - |
| 1777737027 | 10.56° C | 54% | 1019.3 hPa | 0 mm | - | 911 W/m² | - |
| 1777736722 | 10.56° C | 55% | 1019.2 hPa | 0 mm | - | 441 W/m² | - |
| 1777736089 | 11.11° C | 55% | 1019.4 hPa | 0 mm | - | 868 W/m² | - |
| 1777735786 | 10° C | 56% | 1019.5 hPa | 0 mm | - | 693 W/m² | - |
| 1777735484 | 10.56° C | 53% | 1019.6 hPa | 0 mm | - | 293 W/m² | - |
| 1777735181 | 10.56° C | 53% | 1019.5 hPa | 0 mm | - | 478 W/m² | - |
| 1777734878 | 10.56° C | 54% | 1019.6 hPa | 0 mm | - | 931 W/m² | - |
| 1777734575 | 10.56° C | 55% | 1019.4 hPa | 0 mm | - | 840 W/m² | - |
| 1777734272 | 10.56° C | 55% | 1019.5 hPa | 0 mm | - | 810 W/m² | - |
| 1777733968 | 10.56° C | 54% | 1019.4 hPa | 0 mm | - | 783 W/m² | - |
| 1777733665 | 10° C | 56% | 1019.3 hPa | 0 mm | - | 756 W/m² | - |
| 1777733361 | 10° C | 55% | 1019.3 hPa | 0 mm | - | 720 W/m² | - |
| 1777733059 | 10° C | 57% | 1019.2 hPa | 0 mm | - | 703 W/m² | - |
| 1777732754 | 10° C | 57% | 1019.2 hPa | 0 mm | - | 664 W/m² | - |
| 1777732452 | 10° C | 58% | 1019.2 hPa | 0 mm | - | 657 W/m² | - |
| 1777732149 | 9.44° C | 60% | 1019.5 hPa | 0 mm | - | 655 W/m² | - |
* Rain latest hour (hover to see other rain measurements)
** Current wind speed in m/s (hover to see current wind gust speed)